Location: Unspecified
(0.0000°N, 0.0000°E)
Time: 12:03:45
(UTC+00:00)

Vanguard 2 - Pass Details

Date: 17 December 2018
Orbit: 553 x 2938 km, 32.9° (Epoch: 15 July)

Event Time Altitude Azimuth Distance (km) Brightness Sun altitude
Rises 06:44:49 0° 263° (W) 6,555 11.7 11.2°
Reaches altitude 10° 06:50:40 10° 249° (WSW) 5,709 11.6 12.5°
Maximum altitude 07:03:19 23° 204° (SSW) 4,671 11.6 15.4°
Drops below altitude 10° 07:15:03 10° 157° (SSE) 5,228 12.6 18.1°
Sets 07:20:09 0° 143° (SE) 5,898 13.1 19.2°
